FW9474 Weather Reports


time (UTC)temp
F
wind
direction
speed
knots
gust
knots
rain 1hr
in
rain 24hr
in
rain mn
in
humidity
%
barometer
mb
20260504044541 45 0 0.0 0.0 0.00 0.00 0.00 89 1017.3
20260504043030 46 0 0.0 0.0 0.00 0.00 0.00 89 1017.1
20260504041530 46 0 0.0 1.7 0.00 0.00 0.00 87 1017.1
20260504040038 47 0 0.9 1.7 0.00 0.00 0.00 86 1017.3
20260504034528 48 0 0.0 0.0 0.00 0.00 0.00 84 1017.2
20260504033027 49 0 0.0 1.7 0.00 0.00 0.00 83 1017.3
20260504031530 49 0 0.0 1.7 0.00 0.00 0.00 82 1017.3
20260504030031 50 186 0.0 1.7 0.00 0.00 0.00 80 1017.1
20260504024529 51 0 0.0 0.0 0.00 0.00 0.00 78 1017.0
20260504023030 52 0 0.0 0.0 0.00 0.00 0.00 74 1016.8
20260504021527 53 0 0.0 0.0 0.00 0.00 0.00 74 1016.8
20260504020029 53 0 0.0 1.7 0.00 0.00 0.00 71 1016.6
20260504014528 55 0 0.0 1.7 0.00 0.00 0.00 69 1016.4
20260504013036 56 0 0.0 0.0 0.00 0.00 0.00 67 1016.3
20260504011530 57 0 0.0 0.9 0.00 0.00 0.00 63 1016.0
20260504010027 59 216 0.0 2.6 0.00 0.00 0.00 59 1016.0
20260504004530 59 0 0.0 2.6 0.00 0.00 0.00 59 1016.0
20260504003031 61 0 0.0 3.5 0.00 0.00 0.00 57 1015.9
20260504001530 62 0 0.0 2.6 0.00 0.00 0.00 53 1015.8
20260504000028 65 0 0.0 2.6 0.00 0.00 0.00 47 1015.6
20260503234531 66 0 0.0 7.0 0.00 0.00 0.00 45 1015.6
20260503233034 67 161 1.7 4.3 0.00 0.00 0.00 42 1015.5
20260503231529 68 96 1.7 6.1 0.00 0.00 0.00 42 1015.4
20260503230029 68 241 3.5 8.7 0.00 0.00 0.00 38 1015.4
20260503224531 69 159 2.6 9.6 0.00 0.00 0.00 37 1015.6
20260503223028 69 227 4.3 10.4 0.00 0.00 0.00 37 1015.6
20260503221529 69 231 4.3 9.6 0.00 0.00 0.00 37 1015.5
20260503220028 69 252 7.0 13.0 0.00 0.00 0.00 35 1015.6
20260503214527 69 227 3.5 13.0 0.00 0.00 0.00 37 1015.7
20260503213037 69 214 3.5 13.0 0.00 0.00 0.00 37 1015.9
20260503211534 69 180 5.2 12.2 0.00 0.00 0.00 36 1016.0
20260503210031 69 217 6.1 10.4 0.00 0.00 0.00 37 1016.0
20260503204532 69 221 6.1 13.0 0.00 0.00 0.00 36 1016.1
20260503203027 69 162 6.1 16.5 0.00 0.00 0.00 38 1016.3
20260503201529 68 223 4.3 10.4 0.00 0.00 0.00 40 1016.7
20260503200031 68 236 6.1 13.9 0.00 0.00 0.00 41 1016.9
20260503194527 67 193 7.0 14.8 0.00 0.00 0.00 40 1017.3
20260503193029 67 251 7.8 13.9 0.00 0.00 0.00 40 1017.6
20260503191530 67 171 5.2 11.3 0.00 0.00 0.00 43 1017.7
20260503190043 67 238 4.3 14.8 0.00 0.00 0.00 43 1018.0
20260503184527 67 283 2.6 8.7 0.00 0.00 0.00 44 1018.2
20260503183027 65 220 0.9 9.6 0.00 0.00 0.00 44 1018.3
20260503181531 65 158 4.3 12.2 0.00 0.00 0.00 42 1018.5
20260503180039 65 80 3.5 9.6 0.00 0.00 0.00 43 1018.6
20260503174530 64 238 2.6 7.8 0.00 0.00 0.00 44 1018.7
20260503173030 64 105 3.5 8.7 0.00 0.00 0.00 44 1018.9
20260503171539 64 200 4.3 10.4 0.00 0.00 0.00 45 1019.2
20260503081539 39 0 0.0 0.0 0.00 0.00 0.00 93 1017.7
20260503071529 40 0 0.0 2.6 0.00 0.00 0.00 91 1017.1